OK1FPA-13 Weather Reports


time (UTC)temp
C
wind
direction
speed
KPH
gust
KPH
rain 1hr
cm
rain 24hr
cm
rain mn
cm
humidity
%
barometer
mb
20260507211445 12 0.0 0.0 0.00 0.00 0.00 92 1014.5
20260507210445 12 0.0 0.0 0.00 0.00 0.00 91 1014.4
20260507205445 12 0.0 0.0 0.00 0.00 0.00 90 1014.2
20260507204445 12 0.0 0.0 0.00 0.00 0.00 88 1014.2
20260507203445 12 0.0 0.0 0.00 0.00 0.00 87 1014.1
20260507202445 13 0.0 0.0 0.00 0.00 0.00 86 1013.9
20260507201445 13 0.0 0.0 0.00 0.00 0.00 85 1013.8
20260507200445 13 0.0 0.0 0.00 0.00 0.00 82 1013.8
20260507195445 13 0.0 0.0 0.00 0.00 0.00 82 1013.7
20260507194445 13 0.0 0.0 0.00 0.00 0.00 82 1013.6
20260507193445 13 0.0 0.0 0.00 0.00 0.00 82 1013.5
20260507192446 13 0.0 0.0 0.00 0.00 0.00 80 1013.3
20260507191445 13 0.0 0.0 0.00 0.00 0.00 77 1013.3
20260507190445 13 0.0 0.0 0.00 0.00 0.00 75 1013.2
20260507185445 13 0.0 0.0 0.00 0.00 0.00 75 1013.0
20260507184445 13 0.0 0.0 0.00 0.00 0.00 74 1012.8
20260507183445 13 0.0 0.0 0.00 0.00 0.00 73 1012.6
20260507182445 13 0.0 0.0 0.00 0.00 0.00 72 1012.6
20260507181445 14 0.0 0.0 0.00 0.00 0.00 70 1012.4
20260507180445 14 0.0 0.0 0.00 0.00 0.00 67 1012.4
20260507175446 15 0.0 0.0 0.00 0.00 0.00 64 1012.2
20260507174445 15 0.0 0.0 0.00 0.00 0.00 60 1012.1
20260507173445 16 0.0 0.0 0.00 0.00 0.00 54 1011.9
20260507172445 16 0.0 0.0 0.00 0.00 0.00 52 1011.6
20260507171446 16 0.0 0.0 0.00 0.00 0.00 51 1011.5
20260507170445 17 0.0 0.0 0.00 0.00 0.00 50 1011.4
20260507165445 17 0.0 0.0 0.00 0.00 0.00 49 1011.4
20260507164445 17 0.0 0.0 0.00 0.00 0.00 49 1011.3
20260507163445 17 0.0 0.0 0.00 0.00 0.00 48 1011.2
20260507162445 18 0.0 0.0 0.00 0.00 0.00 47 1011.1
20260507161446 18 0.0 0.0 0.00 0.00 0.00 46 1011.0
20260507160445 18 0.0 0.0 0.00 0.00 0.00 44 1011.0
20260507155445 19 0.0 0.0 0.00 0.00 0.00 41 1010.9
20260507154445 20 0.0 0.0 0.00 0.00 0.00 40 1010.9
20260507153445 20 0.0 0.0 0.00 0.00 0.00 42 1011.0
20260507152446 18 0.0 0.0 0.00 0.00 0.00 44 1011.1
20260507151445 18 0.0 0.0 0.00 0.00 0.00 48 1011.0
20260507150445 18 0.0 0.0 0.00 0.00 0.00 49 1010.9
20260507145445 17 0.0 0.0 0.00 0.00 0.00 49 1011.0
20260507144445 19 0.0 0.0 0.00 0.00 0.00 48 1010.9
20260507143445 18 0.0 0.0 0.00 0.00 0.00 49 1011.0
20260507142450 18 0.0 0.0 0.00 0.00 0.00 50 1011.0
20260507141446 18 0.0 0.0 0.00 0.00 0.00 51 1011.0
20260507140446 20 0.0 0.0 0.00 0.00 0.00 46 1011.0
20260507135445 20 0.0 0.0 0.00 0.00 0.00 42 1011.0
20260507134445 20 0.0 0.0 0.00 0.00 0.00 44 1010.9
20260507133445 20 0.0 0.0 0.00 0.00 0.00 45 1011.0
20260507131444 21 0.0 0.0 0.00 0.00 0.00 42 1011.0
20260507130444 21 0.0 0.0 0.00 0.00 0.00 41 1011.0
20260507125444 22 0.0 0.0 0.00 0.00 0.00 39 1010.9
20260507124444 21 0.0 0.0 0.00 0.00 0.00 42 1010.8
20260507123444 21 0.0 0.0 0.00 0.00 0.00 44 1010.9
20260507122444 20 0.0 0.0 0.00 0.00 0.00 46 1010.9
20260507121444 20 0.0 0.0 0.00 0.00 0.00 44 1010.8
20260507120444 20 0.0 0.0 0.00 0.00 0.00 45 1010.8
20260507115444 20 0.0 0.0 0.00 0.00 0.00 43 1010.9
20260507114444 20 0.0 0.0 0.00 0.00 0.00 45 1010.8
20260507113444 19 0.0 0.0 0.00 0.00 0.00 48 1010.8
20260507112444 20 0.0 0.0 0.00 0.00 0.00 45 1010.8
20260507111444 19 0.0 0.0 0.00 0.00 0.00 49 1010.8
20260507110444 20 0.0 0.0 0.00 0.00 0.00 48 1010.6
20260507105444 20 0.0 0.0 0.00 0.00 0.00 50 1010.6
20260507104444 19 0.0 0.0 0.00 0.00 0.00 51 1010.6
20260507103444 19 0.0 0.0 0.00 0.00 0.00 54 1010.5
20260507102444 20 0.0 0.0 0.00 0.00 0.00 52 1010.6
20260507101444 19 0.0 0.0 0.00 0.00 0.00 54 1010.6
20260507100444 19 0.0 0.0 0.00 0.00 0.00 55 1010.5
20260507095444 20 0.0 0.0 0.00 0.00 0.00 53 1010.3
20260507094444 20 0.0 0.0 0.00 0.00 0.00 53 1010.3
20260507093444 19 0.0 0.0 0.00 0.00 0.00 58 1010.4
20260507092444 18 0.0 0.0 0.00 0.00 0.00 58 1010.4
20260507091444 18 0.0 0.0 0.00 0.00 0.00 65 1010.3
20260507090444 18 0.0 0.0 0.00 0.00 0.00 66 1010.3
20260507085444 18 0.0 0.0 0.00 0.00 0.00 67 1010.1
20260507084444 17 0.0 0.0 0.00 0.00 0.00 69 1010.1
20260507083444 16 0.0 0.0 0.00 0.00 0.00 75 1010.1
20260507082444 16 0.0 0.0 0.00 0.00 0.00 75 1010.0
20260507081444 16 0.0 0.0 0.00 0.00 0.00 75 1010.1
20260507080444 15 0.0 0.0 0.00 0.00 0.00 78 1010.0
20260507075444 15 0.0 0.0 0.00 0.00 0.00 78 1010.1
20260507074444 15 0.0 0.0 0.00 0.00 0.00 81 1010.1
20260507073444 15 0.0 0.0 0.00 0.00 0.00 80 1010.0
20260507072444 15 0.0 0.0 0.00 0.00 0.00 81 1009.8
20260507071444 15 0.0 0.0 0.00 0.00 0.00 84 1009.8
20260507070444 15 0.0 0.0 0.00 0.00 0.00 83 1009.7
20260507065444 15 0.0 0.0 0.00 0.00 0.00 89 1009.7
20260507064444 14 0.0 0.0 0.00 0.00 0.00 89 1009.6
20260507063444 14 0.0 0.0 0.00 0.00 0.00 93 1009.5
20260507062444 13 0.0 0.0 0.00 0.00 0.00 96 1009.4
20260507061444 13 0.0 0.0 0.00 0.00 0.00 95 1009.3
20260507060444 13 0.0 0.0 0.00 0.00 0.00 99 1009.2
20260507055444 13 0.0 0.0 0.00 0.00 0.00 10 1009.1
20260507054444 13 0.0 0.0 0.00 0.00 0.00 10 1009.1
20260507053444 13 0.0 0.0 0.00 0.00 0.00 10 1008.9
20260507052444 13 0.0 0.0 0.00 0.00 0.00 10 1008.7
20260507051444 12 0.0 0.0 0.00 0.00 0.00 10 1008.6
20260507050444 12 0.0 0.0 0.00 0.00 0.00 10 1008.5
20260507045448 12 0.0 0.0 0.00 0.00 0.00 10 1008.4
20260507044444 12 0.0 0.0 0.00 0.00 0.00 10 1008.2
20260507043444 12 0.0 0.0 0.00 0.00 0.00 10 1008.1
20260507042444 12 0.0 0.0 0.00 0.00 0.00 10 1008.0
20260507041444 12 0.0 0.0 0.00 0.00 0.00 10 1007.9
20260507040444 12 0.0 0.0 0.00 0.00 0.00 10 1007.8
20260507035444 12 0.0 0.0 0.00 0.00 0.00 10 1007.7
20260507034444 11 0.0 0.0 0.00 0.00 0.00 10 1007.7
20260507033444 11 0.0 0.0 0.00 0.00 0.00 10 1007.6
20260507032444 11 0.0 0.0 0.00 0.00 0.00 10 1007.5
20260507031444 11 0.0 0.0 0.00 0.00 0.00 10 1007.4
20260507030444 11 0.0 0.0 0.00 0.00 0.00 10 1007.3
20260507025444 11 0.0 0.0 0.00 0.00 0.00 10 1007.2
20260507024444 11 0.0 0.0 0.00 0.00 0.00 10 1007.3
20260507023444 11 0.0 0.0 0.00 0.00 0.00 10 1007.2
20260507022444 11 0.0 0.0 0.00 0.00 0.00 10 1007.2
20260507021444 11 0.0 0.0 0.00 0.00 0.00 10 1007.2
20260507020444 12 0.0 0.0 0.00 0.00 0.00 10 1007.1
20260507015444 12 0.0 0.0 0.00 0.00 0.00 10 1007.1
20260507014444 12 0.0 0.0 0.00 0.00 0.00 10 1007.0
20260507013444 12 0.0 0.0 0.00 0.00 0.00 10 1006.8
20260507012446 12 0.0 0.0 0.00 0.00 0.00 10 1006.5
20260507011442 12 0.0 0.0 0.00 0.00 0.00 10 1006.5
20260507010442 12 0.0 0.0 0.00 0.00 0.00 10 1006.4
20260507004442 12 0.0 0.0 0.00 0.00 0.00 10 1006.1
20260507003442 12 0.0 0.0 0.00 0.00 0.00 10 1006.0
20260507002442 12 0.0 0.0 0.00 0.00 0.00 10 1005.7
20260507001442 12 0.0 0.0 0.00 0.00 0.00 10 1005.7
20260507000442 12 0.0 0.0 0.00 0.00 0.00 10 1005.7
20260506235442 13 0.0 0.0 0.00 0.00 0.00 10 1005.7
20260506234443 13 0.0 0.0 0.00 0.00 0.00 10 1005.8
20260506233442 13 0.0 0.0 0.00 0.00 0.00 10 1005.5
20260506232442 13 0.0 0.0 0.00 0.00 0.00 10 1004.9
20260506231443 13 0.0 0.0 0.00 0.00 0.00 10 1005.2
20260506230442 13 0.0 0.0 0.00 0.00 0.00 10 1005.5
20260506225442 13 0.0 0.0 0.00 0.00 0.00 10 1005.6
20260506224443 13 0.0 0.0 0.00 0.00 0.00 10 1005.9
20260506223442 13 0.0 0.0 0.00 0.00 0.00 10 1005.9
20260506222442 13 0.0 0.0 0.00 0.00 0.00 10 1006.0
20260506221442 13 0.0 0.0 0.00 0.00 0.00 10 1006.0
20260506220442 13 0.0 0.0 0.00 0.00 0.00 10 1006.0
20260506215442 13 0.0 0.0 0.00 0.00 0.00 10 1005.1
20260506214442 13 0.0 0.0 0.00 0.00 0.00 10 1004.5
20260506213442 12 0.0 0.0 0.00 0.00 0.00 10 1004.5
20260506212442 12 0.0 0.0 0.00 0.00 0.00 10 1004.6